sat.trackr.live / text

‹ back to catalog

STARLINK-11422 [DTC]

NORAD 61944 · 2024-209F

PAYLOAD ACTIVE UNKNOWN

§ Identity

Operator
Country
US
Launch date
2024-11-14
Launch site
AFWTR
Launch vehicle
Mass (kg)
RCS (m²)

Purposes: comms

External: N2YO · Heavens-Above · Gunter

§ Orbital elements

Epoch: 2026-09-21T20:20:26.802816Z

Period
91.74 min
Inclination
53.1575°
Eccentricity
0.0000871
Mean motion
15.69721287 rev/d
Perigee alt
359.1 km
Apogee alt
360.3 km
Semi-major
6,737.8 km
B*
1.5375e-3
RAAN
124.5004°
Arg perigee
111.2702°
Mean anomaly
248.8409°
Rev number
10,748

§ Raw data

STARLINK-11422 [DTC]1 61944U 24209F   26264.84753244  .00190092  00000+0  15375-2 0  99912 61944  53.1575 124.5004 0000871 111.2702 248.8409 15.69721287107481

JSON: /api/v1/satellites/61944 · /tle

For live sub-satellite position, see the globe view (requires WebGL).

§ Visibility from observer

Set your observer location to see the next 7 days of passes ≥ 10°. The values pass through the URL so the page stays shareable.

No JS? Fill the form by hand. The geolocation button needs JavaScript.